Regional Weather Roundup
Issued by NWS Bismarck, ND

Home | Current Version | Previous Version | Text Only | Print | Product List | Glossary On
Versions: 1 2 3 4 5 6 7 8 9 10 11 12 13 14 15 16 17 18 19 20 21 22 23 24 25 26 27 28 29 30 31 32 33 34 35 36 37 38 39 40 41 42 43 44 45 46 47 48 49 50
243
ASUS43 KBIS 260010
RWRBIS

NWR BROADCAST TEXT
NATIONAL WEATHER SERVICE BISMARCK ND
700 PM CDT FRI MAY 25 2018

NOTE: "FAIR" INDICATES FEW OR NO CLOUDS BELOW 12,000 FEET WITH NO
SIGNIFICANT WEATHER AND/OR OBSTRUCTIONS TO VISIBILITY.


CITY           SKY/WX    TMP DP  RH WIND       PRES   REMARKS
WILLISTON      MOSUNNY   86  47  25 W18G29    29.72F
MINOT          MOSUNNY   88  44  21 W14G28    29.66R
MINOT AFB      NOT AVBL
BISMARCK       MOSUNNY   89  49  25 W14       29.69F
DICKINSON      SUNNY     84  45  25 W20       29.77S
GARRISON         N/A     85  47  26 NW18      29.69S
HETTINGER ARPT SUNNY     81  48  31 W16       29.82F
JAMESTOWN      MOSUNNY   85  57  38 W9        29.64F
CARRINGTON     FAIR      90  45  20 W20       29.65S
HAZEN          FAIR      88  46  23 NW16      29.72S
LINTON           N/A    N/A N/A N/A W15       29.73S
MANDAN         FAIR      84  50  30 W15       29.71F
OAKES            N/A     88  55  33 W13G20    29.67S
STANLEY          N/A     84  43  23 W18G31    29.74S HAZE
TIOGA          FAIR      84  45  24 W26       29.73S
WATFORD CITY   FAIR      86  48  26 W13G23    29.73S
$$

CITY           SKY/WX    TMP DP  RH WIND       PRES   REMARKS
GRAND FORKS    PTSUNNY   88  52  29 SW7       29.54S
GRAND FORKS AF MOSUNNY   89  49  24 NW15G21   29.55S
DEVILS LAKE    FAIR      88  48  25 W21G26    29.61S
FARGO          FAIR      88  51  28 N3        29.59F
CANDO          FAIR      86  46  25 W21G35    29.62S
CAVALIER         N/A     91  45  19 W14G21    29.52R
GRAFTON        FAIR      88  52  29 W16       29.54S
GWINNER          N/A     90  48  24 W13G20    29.65S
LANGDON        FAIR      88  45  22 W25G35    29.59R
ROLLA          FAIR      86  45  23 NW22G32   29.62S
WALHALLA       FAIR      88  52  29 W13G18    29.53R
$$

CITY           SKY/WX    TMP DP  RH WIND       PRES   REMARKS
ABERDEEN       SUNNY     91  48  22 NW10      29.69F
MOBRIDGE       SUNNY     88  56  33 W10       29.72S
BUFFALO          N/A     82  49  31 NW16      29.79F
RAPID CITY     MOSUNNY   81  58  45 VRB6      29.88F
GLASGOW        SUNNY     84  48  28 NW7       29.75F
SIDNEY         SUNNY     82  53  36 W10       29.75F
WOLF POINT     MOSUNNY   85  51  31 SW12      29.74F
GLENDIVE       SUNNY     79  56  45 W8        29.80S
MILES CITY     SUNNY     81  54  39 NW9       29.82F
BAKER          SUNNY     79  51  37 W14       29.85F
$$

CITY           SKY/WX    TMP DP  RH WIND       PRES   REMARKS
BILLINGS       MOSUNNY   81  51  35 VRB5      29.86F
GREAT FALLS    MOSUNNY   81  45  28 S9        29.82F
REGINA         MOSUNNY   77  55  47 N17G23    29.66R
ESTEVAN        MOSUNNY   84  43  23 NW25G38   29.66F
$$





USA.gov is the U.S. government's official web portal to all federal, state and local government web resources and services.